Home   Weather   Londrina   Past weeks
Flag for Brazil

Past Weather in Londrina, Paraná, Brazil — Yesterday and Last 2 Weeks

Now
59 °F

Clear.


Feels Like: 59 °F
Forecast: 77 / 56 °F
Wind: No wind

Location: Londrina Aeroporto

Current Time: Jul 20, 2019 at 7:09:40 am

Latest Report: Jul 20, 2019 at 6:00 am


Visibility: 10 mi

Pressure: 30.15 "Hg (28.03 "Hg at 615m altitude)

Humidity: 82%

Dew Point: 54 °F

Location of LondrinaLocation

Past Weather in Londrina — Graph

°F

Londrina Temperature Yesterday

Maximum temperature yesterday: 73 °F (at 2:00 pm)
Minimum temperature yesterday: 54 °F (at 7:00 am)
Average temperature yesterday: 63 °F

High & Low Weather Summary for the Past Weeks

 TemperatureHumidityPressure
High86 °F (Jul 14, 2:00 pm)100% (Jul 5, 6:00 am)30.33 "Hg (Jul 5, 6:00 am)
Low36 °F (Jul 6, 7:00 am)25% (Jul 14, 4:00 pm)26.96 "Hg (Jul 10, 10:00 pm)
Average61 °F64%30.16 "Hg
* Reported Jul 5 6:00 am — Jul 20 6:00 am, Londrina. Weather by CustomWeather, © 2019

Note: Actual official high and low records may vary slightly from our data, if they occured in-between our weather recording intervals... More about our weather records

Advertising

Londrina Weather History for the Previous 24 Hours

Scroll right to see more
 ConditionsComfort  
Time TempWeatherWind HumidityBarometerVisibility
6:00 am
Sat, Jul 20
59 °FClear.No wind82%30.15 "Hg10 mi
5:00 am59 °FClear.No wind82%30.15 "Hg10 mi
4:00 am59 °FClear.No wind88%30.15 "Hg10 mi
3:00 am61 °FClear.No wind83%30.15 "Hg10 mi
2:00 am61 °FClear.No wind83%30.15 "Hg10 mi
1:00 am61 °FClear.No wind83%30.18 "Hg10 mi
12:00 am63 °FClear.No wind83%30.21 "Hg10 mi
11:00 pm
Fri, Jul 19
63 °FClear.No wind77%30.21 "Hg10 mi
10:00 pm64 °FClear.No wind78%30.18 "Hg10 mi
9:00 pm64 °FClear.6 mph78%30.18 "Hg10 mi
8:00 pm68 °FClear.2 mph69%30.18 "Hg10 mi
7:00 pm68 °FClear.No wind69%30.18 "Hg10 mi
6:00 pm72 °FClear.1 mph61%30.18 "Hg10 mi
5:00 pm73 °FSunny.7 mph57%30.15 "Hg10 mi
4:00 pm73 °FSunny.1 mph53%30.18 "Hg10 mi
3:00 pm73 °FSunny.7 mph53%30.18 "Hg10 mi
2:00 pm73 °FSunny.9 mph53%30.18 "Hg10 mi
1:00 pm72 °FSunny.6 mph53%30.21 "Hg10 mi
12:00 pm68 °FSunny.8 mph60%30.24 "Hg10 mi
11:00 am64 °FSunny.6 mph68%30.27 "Hg10 mi
10:00 am61 °FSunny.2 mph77%30.27 "Hg10 mi
9:00 am59 °FSunny.2 mph77%30.27 "Hg10 mi
8:00 am54 °FSunny.No wind94%30.24 "Hg10 mi
7:00 am54 °FClear.2 mph88%30.24 "Hg10 mi
Weather by CustomWeather, © 2019

See weather overview